NIMBUS 2 DEB

Satellite information

Favourite Embed

Satellite Type and Status

DEBRISIN ORBIT

Key statistics

Satellite NIMBUS 2 DEB at a glance.

Uptime

21710

Days in orbit

Revolutions

≈ 13.9

Per day

Orbit

SSO

Sun Synchronous Orbit

Inclination

100.3

Latest

Satellite identification and parameters

Extended collection of information and parameters for NIMBUS 2 DEB.

Object identification

Identified? True

Debris? True

Object name: NIMBUS 2 DEB

International designator: 1966-040AE

Object number (NORAD): 28615

Object ID (CCSDS): 28615

Country: UNITED STATES OF AMERICA (US)

Current information (Y/N): Y

RCS size: SMALL

Orbital parameters

Period: 103.619 minutes

Inclination: 100.2672 deg

SMA: 7307.815 km

Apoapsis: 953.15 km

Periapsis: 906.209 km

RAAN: 57.9931 deg

Eccentricy: 0.0032117

Argument of periapsis: 59.3295 deg

Mean anomaly: 2.3375 deg

Mean motion: 13.89701324 rev/day

Mean motion (dot): 0.00009771 rev/day2

B* drag term: 0.007965 1/REarth

Two-line elements (TLE)

Creation date: Oct. 22, 2025, 12:16 a.m.

Reference frame: TEME

Reference center: EARTH

Epoch: Oct. 21, 2025, 2:04 p.m. UTC

TLE line 0: 0 NIMBUS 2 DEB

TLE line 1: 1 28615U 66040AE 25294.58679492 .00009771 00000-0 79650-2 0 9993

TLE line 2: 2 28615 100.2672 57.9931 0032117 59.3295 2.3375 13.89701324572612

Live tracking on map

Real-time ground track for satellite NIMBUS 2 DEB.

In-orbit conjunctions

A list of the most updated potential collisions computed for object NIMBUS 2 DEB.

Target Orbit TCA Probability of collision Miss distance Type
SL-8 R/B LEO 2025-04-03 21:13:19 0.0001905975 58.0 (m) ROCKET BODY
COSMOS 1745 LEO 2024-11-10 05:10:07 0.0001222106 668.0 (m) PAYLOAD

Associated space launch

Nimbus 2, the second in a series of second-generation meteorological research-and-development satellites, added an additional medium-resolution infrared radiometer (MRIR) compared to Nimbus 1.

NIMBUS 2 DEB was lifted into orbit during the mission ‘Thor SLV-2A Agena B | Nimbus 2’, on board a Thor SLV-2A Agena B space rocket.

The launch took place on May 15, 1966, 7:55 a.m. from Space Launch Complex 2E.

For more information about the launch, click the button.

Launch to space Thor SLV-2A Agena B | Nimbus 2
Thor SLV-2A Agena B | Nimbus 2

Agency: N/A

Status: Launch Successful

Launch date: May 15, 1966, 7:55 a.m. UTC

Rocket: Thor SLV-2A Agena B

Launch pad: Space Launch Complex 2E

Location: Vandenberg SFB, CA, USA

...

Latest news about this satellite

There are no fresh news available about this satellite. Check back as we update our databases every day.


Newsletter sign-up

Weekly statistics, charts and insights to help you stay on top of the space industry.